sat.trackr.live / text

‹ back to catalog

STARLINK-36273

NORAD 68166 · 2026-049AA

PAYLOAD ACTIVE UNKNOWN

§ Identity

Operator
Country
US
Launch date
2026-03-13
Launch site
AFWTR
Launch vehicle
Mass (kg)
RCS (m²)

Purposes: comms

External: N2YO · Heavens-Above · Gunter

§ Orbital elements

Epoch: 2026-09-20T00:38:09.293280Z

Period
93.91 min
Inclination
97.2859°
Eccentricity
0.0000663
Mean motion
15.33427590 rev/d
Perigee alt
465.1 km
Apogee alt
466.0 km
Semi-major
6,843.7 km
B*
4.7597e-4
RAAN
283.8296°
Arg perigee
99.1113°
Mean anomaly
261.0205°
Rev number
2,948

§ Raw data

STARLINK-362731 68166U 26049AA  26263.02649645  .00015314  00000+0  47597-3 0  99912 68166  97.2859 283.8296 0000663  99.1113 261.0205 15.33427590 29484

JSON: /api/v1/satellites/68166 · /tle

For live sub-satellite position, see the globe view (requires WebGL).

§ Visibility from observer

Set your observer location to see the next 7 days of passes ≥ 10°. The values pass through the URL so the page stays shareable.

No JS? Fill the form by hand. The geolocation button needs JavaScript.